User: anonymous   Login
Location: Unspecified
(0.0000°N, 0.0000°E)
Time: 03:03:54
(UTC+00:00)
Language:

GALILEO 11 (268) - Orbit

View from above orbital plane
View from above orbital plane
View from above satellite
View from above satellite

Ground track
Ground track

The orbit data is extracted from the following two-line orbital elements,

1 41175U 15079B   19053.95610819  .00000001  00000-0  00000+0 0  9997
2 41175  54.9357 174.7125 0002965 309.8531  50.0900  1.70473807 19822
Epoch (UTC): 22 February 2019 22:56:47
Eccentricity: 0.0002965
inclination: 54.9357°
perigee height: 23213 km
apogee height: 23231 km
right ascension of ascending node: 174.7125°
argument of perigee: 309.8531°
revolutions per day: 1.70473807
mean anomaly at epoch: 50.0900°
orbit number at epoch: 1982

The dashed part of the orbit path shows where the satellite is in the earth's shadow,  

DLR